Theta_e
306 306 306 306 307 307 307 307 308 307 306 305 306 306 306 307 307 309 310 310 310 309 309 309 309 310 310 310 309 309 310 309 310 310 311 311 313 313 313 318 318 317 314 319 339 346 342 342 341 346 349 349 348 348 352 352 354 355 355 356 354 351 355 356 357 354 355 357 358 358 357 357 358 359 360 359 358 356 356 355 354 354 353 350 351 352 352 352
306 306 306 306 306 306 307 307 307 307 306 306 306 306 306 306 307 308 309 311 311 310 310 308 309 310 310 310 309 310 310 310 310 312 314 312 312 311 311 317 319 317 314 325 342 342 338 338 339 346 349 349 349 350 353 354 354 354 356 354 355 352 352 356 356 356 356 358 359 359 358 357 358 360 360 359 357 356 356 355 354 354 352 351 352 352 352 352
308 308 308 308 307 307 307 307 307 307 306 306 306 306 306 307 307 308 309 310 311 311 310 309 309 309 310 310 310 310 309 311 316 318 320 316 312 311 312 315 320 317 314 329 341 336 335 334 337 346 348 350 351 351 353 353 354 354 355 355 353 351 349 352 357 357 357 358 360 359 358 358 358 358 358 358 357 356 355 355 355 354 352 352 352 352 352 352
309 309 309 309 309 309 308 308 307 307 307 306 306 307 307 307 307 307 309 310 311 311 311 310 309 310 310 309 310 309 310 317 325 328 327 320 313 312 312 315 321 316 317 333 337 332 333 331 336 343 346 351 351 352 353 352 355 354 353 353 350 350 348 347 353 357 357 358 358 359 358 358 356 356 357 357 357 357 356 355 354 353 352 352 352 352 351 350
309 310 310 310 310 310 310 310 309 309 308 307 307 307 307 307 307 308 309 310 311 311 311 310 309 310 309 309 310 308 314 320 328 335 329 321 316 313 311 316 321 315 321 336 334 330 331 331 335 340 345 349 350 351 352 352 353 352 352 352 350 349 347 346 348 353 356 357 358 359 358 357 357 356 357 356 356 357 356 354 353 353 352 352 351 351 350 350
309 309 309 310 310 310 310 310 310 310 310 309 308 308 308 308 308 309 310 311 311 311 311 310 309 310 308 310 309 308 317 322 327 334 328 320 317 313 311 317 320 316 326 336 331 329 328 330 335 338 344 346 347 350 350 352 350 353 354 349 348 348 345 346 344 346 354 358 359 358 357 358 358 357 356 356 357 356 355 354 353 353 351 351 350 350 350 349
311 311 310 310 310 310 310 310 311 311 311 310 310 310 310 310 310 311 311 312 312 312 311 310 309 309 309 309 309 313 319 323 328 329 323 320 318 312 312 318 318 318 329 334 330 329 326 329 334 337 342 341 345 348 349 352 350 352 353 348 346 346 344 344 341 343 351 358 359 358 357 359 358 357 356 357 359 356 353 353 352 352 350 350 350 349 349 348
313 313 313 312 311 311 310 310 311 311 311 311 311 311 311 311 312 312 313 313 312 312 310 310 309 308 309 308 314 322 322 325 328 324 320 319 316 311 314 318 317 322 331 332 330 329 325 328 331 335 339 338 341 346 348 350 348 348 349 349 347 344 343 342 341 342 349 357 359 358 357 358 358 357 358 358 358 356 353 352 351 351 350 350 350 349 348 347
313 313 313 313 313 313 312 312 311 311 312 312 312 311 311 312 313 314 314 313 312 311 310 310 308 309 309 308 318 327 325 329 326 320 319 316 314 311 315 319 318 327 332 329 330 327 326 327 328 332 333 333 338 342 346 346 347 347 347 349 347 342 342 342 343 342 349 357 357 357 356 358 358 357 358 358 356 356 354 352 351 350 350 350 349 348 347 348
314 313 313 313 313 313 313 313 313 312 312 312 313 312 312 313 314 315 314 313 312 311 310 309 308 310 309 311 321 325 326 330 324 319 318 312 312 310 317 322 322 330 329 325 328 326 327 326 326 328 328 331 335 338 344 345 345 347 346 348 344 340 342 344 344 344 351 356 356 357 356 357 357 356 358 357 356 356 353 352 351 350 350 349 349 348 347 347
314 314 314 313 313 313 313 313 313 313 312 312 313 312 312 313 314 315 314 314 312 311 309 308 309 310 311 317 326 326 327 329 324 322 319 313 312 312 321 326 326 329 325 323 326 326 327 326 325 326 326 331 334 335 340 344 345 345 344 344 340 339 344 345 344 348 353 354 354 357 357 358 356 355 358 357 355 355 353 353 352 351 351 349 349 348 347 347
314 314 314 314 313 313 313 313 313 313 313 313 313 313 313 314 314 314 314 314 314 312 308 308 310 310 315 322 325 324 330 329 324 325 323 320 317 317 325 328 328 327 323 323 324 324 326 325 325 326 328 330 332 334 336 342 344 344 343 341 340 339 343 346 347 351 352 353 355 354 353 355 354 354 357 356 354 355 354 354 353 352 351 349 349 349 349 347
313 313 314 313 314 313 313 313 313 313 313 313 313 313 313 314 314 314 314 314 314 312 308 309 311 312 320 327 322 323 329 328 324 328 327 323 321 322 326 327 327 326 323 324 323 324 324 324 326 326 328 328 331 334 335 342 343 342 342 340 340 338 342 348 347 352 353 353 355 354 354 355 354 354 357 357 356 356 354 354 354 353 352 350 349 349 349 348
313 313 313 313 313 313 313 313 313 313 313 313 313 313 313 314 314 313 314 314 313 310 309 311 312 316 324 328 322 322 327 327 325 328 329 327 325 324 325 326 327 326 324 324 323 324 323 324 325 325 327 327 331 334 334 339 338 340 340 339 341 334 339 348 345 352 353 352 355 354 352 354 354 355 357 356 355 355 355 354 354 353 352 351 350 350 349 349
313 313 312 312 312 312 313 313 313 313 313 313 314 313 314 315 314 314 315 313 312 310 309 312 312 319 329 327 322 321 324 327 325 327 328 328 327 325 325 325 325 325 324 323 323 323 323 323 324 325 326 327 330 333 334 335 335 338 336 335 338 333 339 349 345 352 353 352 357 353 348 351 354 355 356 356 355 354 355 355 354 354 353 352 351 350 349 349
312 312 312 312 312 312 312 313 313 313 313 313 314 314 314 315 314 314 314 313 314 312 312 319 318 320 329 327 323 321 323 327 325 326 326 326 326 324 325 324 324 324 323 323 323 323 323 323 324 324 326 327 328 331 333 332 331 336 336 331 334 332 338 344 344 352 353 352 357 352 348 351 355 356 355 355 356 355 354 355 355 355 354 353 352 350 349 349
312 312 313 313 312 312 312 312 313 313 313 313 314 314 315 315 314 314 313 312 315 313 316 326 325 321 325 326 324 322 325 327 324 325 325 325 326 324 325 324 324 323 322 323 322 322 322 322 323 323 325 326 327 330 329 325 325 331 335 332 333 334 334 338 343 351 351 349 352 351 351 353 353 356 355 355 357 356 355 355 355 356 355 355 353 351 349 349
313 314 314 314 313 313 312 312 313 312 313 313 314 314 315 315 314 314 315 315 316 317 318 323 323 322 323 324 324 324 326 327 325 325 325 326 327 325 324 324 324 323 323 324 322 321 322 321 324 322 324 325 327 328 324 323 326 327 331 330 332 334 332 336 341 347 350 349 351 349 353 357 354 355 356 355 355 355 356 354 355 356 355 356 354 351 350 349
315 315 315 314 314 313 313 312 312 312 312 314 314 314 314 315 315 315 319 321 321 322 323 321 321 322 322 322 324 325 326 326 325 325 325 327 327 325 325 324 325 325 325 325 322 322 322 322 323 322 323 325 328 329 325 329 332 329 332 331 330 330 329 337 341 345 349 349 352 351 351 358 356 354 355 353 354 356 356 356 355 355 354 355 355 352 351 350
315 315 314 314 314 314 314 312 312 312 313 314 314 316 318 320 321 321 323 324 323 322 322 321 320 321 322 323 323 323 323 324 325 325 326 327 327 326 325 325 325 325 325 325 323 322 322 321 322 322 323 325 327 329 329 331 333 334 334 331 332 329 328 336 342 344 347 345 351 353 350 355 355 353 354 354 354 356 356 356 357 354 353 354 353 352 351 351
315 314 314 314 314 314 314 313 313 312 313 314 314 319 324 322 322 322 322 323 322 320 320 320 319 320 323 323 322 321 321 322 324 325 325 326 327 326 326 325 325 324 325 326 324 323 321 319 322 323 323 325 326 329 332 331 333 335 333 331 331 330 330 336 339 340 344 344 345 351 352 351 354 351 353 355 354 355 355 356 357 356 354 353 352 352 352 352
315 315 315 315 316 315 314 314 313 312 314 314 314 319 323 319 318 319 319 320 320 319 318 318 318 319 321 322 321 321 320 321 323 325 326 326 326 326 326 325 324 324 325 326 325 323 321 319 321 324 323 325 327 328 331 332 334 335 333 331 328 330 332 332 335 336 338 341 340 343 348 348 350 350 352 353 351 352 354 356 357 356 356 354 354 353 352 353
315 316 316 317 317 315 314 314 313 313 313 315 316 319 320 319 318 318 317 318 319 319 317 317 317 318 320 321 321 320 320 320 322 325 325 325 326 326 326 325 324 325 324 325 325 322 320 320 322 324 324 326 329 329 330 333 334 334 333 329 327 331 330 325 330 334 335 336 338 340 340 343 349 349 348 348 347 347 349 353 357 357 357 356 355 354 354 353
316 317 317 318 317 316 315 314 314 315 315 317 320 320 319 318 318 318 318 319 320 319 318 316 316 317 319 320 320 319 320 319 320 325 324 324 326 326 326 326 324 325 325 325 326 324 322 323 323 324 324 325 328 330 332 332 332 333 334 330 328 331 330 328 330 332 335 333 336 339 333 334 344 345 344 345 344 344 345 349 352 356 357 356 356 355 356 355
317 318 317 317 317 316 316 316 317 318 318 318 320 319 318 318 318 318 319 319 319 318 317 316 316 318 319 319 319 319 320 319 320 325 324 324 325 325 326 327 326 326 325 325 325 325 325 325 324 323 324 326 331 332 332 331 329 329 333 332 331 332 331 332 333 330 329 327 332 335 327 328 336 340 342 343 343 344 346 347 350 356 357 354 356 356 356 356
317 318 316 316 316 316 318 320 318 317 319 319 319 318 318 319 319 318 319 319 318 316 316 315 316 318 318 318 319 319 319 318 320 323 323 323 325 324 323 325 327 326 326 326 325 325 326 326 325 325 327 330 332 332 331 330 326 323 328 332 332 334 333 331 331 328 322 323 332 333 327 325 329 335 339 341 343 345 346 348 351 356 357 355 355 356 356 357
318 317 315 316 316 315 318 320 317 317 320 320 319 318 319 319 318 318 320 317 315 316 316 315 315 317 318 319 318 318 317 317 319 321 321 322 324 323 321 323 326 325 327 326 322 324 326 327 327 328 330 330 330 329 329 329 323 322 327 331 332 333 334 332 330 327 324 326 331 331 330 325 325 335 343 343 347 349 348 348 351 355 356 356 356 356 357 356
318 316 315 316 316 315 316 318 319 320 320 319 319 318 319 319 317 319 320 316 314 316 317 315 316 316 317 318 318 317 317 317 318 319 320 321 322 321 321 323 324 324 327 325 320 323 326 327 328 329 329 329 328 328 329 329 324 326 330 330 331 333 334 333 331 327 328 327 323 326 329 324 324 335 343 344 346 349 351 349 351 352 352 355 355 357 357 354
318 317 316 315 315 316 316 316 320 321 318 318 319 318 319 318 318 320 319 317 315 315 316 315 316 317 317 318 317 317 318 318 318 319 319 320 320 321 320 322 323 324 326 326 323 324 326 328 330 329 327 327 327 328 330 329 327 329 332 330 331 332 333 334 331 327 327 324 320 323 325 323 326 334 337 343 345 347 351 348 350 351 351 352 352 355 356 353
318 317 316 315 317 319 319 318 319 318 318 318 318 319 319 318 319 318 316 317 316 315 316 315 315 318 318 317 317 317 317 318 318 319 319 319 319 320 320 321 323 323 326 327 325 326 327 329 330 329 327 327 328 329 330 330 329 328 330 331 330 331 332 331 330 327 324 322 321 323 324 325 329 334 337 343 346 346 348 347 348 350 350 352 352 353 354 353
318 317 315 315 317 318 319 321 320 318 318 318 319 319 319 319 319 317 315 316 315 315 315 315 316 317 317 317 316 317 317 318 319 318 318 319 319 319 320 321 323 323 324 324 324 325 326 327 328 329 329 329 328 329 331 332 330 329 329 330 326 325 327 325 325 326 322 320 321 324 327 322 325 333 339 344 346 344 345 346 347 348 348 350 352 353 354 353
317 317 315 314 315 315 318 320 320 318 317 317 319 320 321 320 317 316 316 315 313 314 315 316 317 317 317 317 317 317 317 318 319 318 318 318 318 319 319 320 322 321 320 321 321 323 325 325 326 328 329 328 328 329 330 330 329 329 328 326 322 320 321 320 321 322 321 321 322 325 327 320 322 334 342 345 344 343 345 347 347 348 349 349 350 353 354 355
317 317 315 314 314 315 317 318 316 316 316 317 320 322 322 319 316 316 315 314 314 315 316 316 317 317 317 317 317 317 317 318 318 318 319 319 319 319 319 320 322 321 320 320 318 318 321 324 325 326 327 328 328 327 326 326 328 328 327 323 320 318 318 319 320 320 321 321 323 327 325 321 327 337 342 344 344 344 347 348 348 350 350 350 349 352 354 355
317 316 316 316 316 315 315 315 315 315 317 320 322 322 321 318 316 316 314 315 315 315 317 316 316 317 317 317 317 317 317 317 318 319 319 319 319 319 319 320 321 321 322 320 318 318 317 319 323 323 324 326 328 328 326 325 326 327 329 326 321 319 319 319 319 319 320 320 322 324 322 321 327 336 341 344 345 345 347 347 348 349 349 351 351 351 353 354
316 316 317 319 319 317 315 314 314 315 318 322 322 320 319 316 315 315 315 316 316 315 316 316 317 316 315 317 317 318 317 317 318 319 318 318 319 319 319 320 321 321 321 319 319 319 316 317 322 322 323 326 326 327 327 324 323 326 329 326 321 322 322 319 318 319 319 319 319 319 322 327 332 338 343 345 344 346 347 347 348 349 349 350 351 352 354 354
318 319 320 321 319 317 316 314 314 315 318 322 322 318 316 315 316 316 316 316 316 316 315 315 316 314 314 316 316 317 318 318 318 318 318 319 318 319 319 319 320 320 320 319 319 319 316 316 320 321 321 323 323 324 324 322 322 324 325 323 324 327 325 319 317 319 319 317 318 319 325 332 337 340 343 343 343 345 345 347 348 349 350 349 350 352 354 354
320 322 320 319 317 316 316 314 314 316 319 322 320 317 316 316 317 316 316 317 316 316 315 314 314 314 313 314 315 317 317 317 318 317 317 318 317 318 318 319 318 319 320 320 320 321 318 316 319 320 320 321 322 323 324 324 323 322 322 323 326 327 327 322 319 319 317 316 317 318 323 327 330 335 342 342 343 343 343 346 347 348 349 349 350 351 352 353
319 321 319 318 317 317 316 315 315 318 321 320 318 317 317 317 317 317 317 317 316 316 316 314 314 315 314 313 314 316 316 315 316 316 316 316 316 317 318 318 318 318 319 319 320 323 320 316 318 321 320 320 322 321 321 323 324 323 322 325 325 321 321 323 320 319 317 316 317 317 321 323 325 332 340 342 342 343 343 344 345 346 348 348 348 349 350 351
319 321 321 318 317 317 317 317 318 320 322 321 318 317 317 316 317 318 317 317 317 317 317 316 315 315 315 314 314 316 316 315 315 316 316 316 316 317 318 318 318 319 319 320 320 322 322 317 316 320 321 320 321 320 318 319 322 324 324 325 325 322 321 322 321 321 318 317 318 317 318 322 326 334 339 339 341 341 342 343 343 345 347 346 347 348 348 349
320 321 320 318 317 317 317 318 320 320 321 322 319 317 318 317 317 317 317 317 317 317 317 318 316 316 316 316 316 316 316 316 316 317 316 316 317 316 317 317 318 319 319 320 320 320 322 320 316 319 321 319 318 319 319 319 320 321 321 322 322 323 323 322 321 322 319 318 318 317 319 324 330 336 338 338 338 339 340 341 342 344 345 345 347 348 348 349
320 320 319 318 317 317 317 319 320 320 319 319 318 317 317 317 318 318 317 317 317 316 317 319 317 317 316 316 316 316 317 317 317 317 317 317 317 316 316 317 318 319 319 319 320 320 321 321 317 317 317 316 318 320 321 321 321 321 321 321 321 321 321 319 319 321 318 318 318 317 322 328 334 334 336 336 337 338 339 340 341 343 343 344 347 347 348 349
320 320 319 317 316 317 318 319 319 320 319 318 317 317 317 317 317 317 317 318 318 317 318 318 318 318 317 317 317 316 317 317 317 317 317 317 317 315 315 317 318 319 319 318 318 319 321 322 319 316 317 318 319 321 321 320 322 322 322 323 323 323 320 317 318 319 317 319 318 318 325 331 334 334 336 336 337 338 339 340 340 341 342 343 345 346 347 347
320 319 318 316 316 317 319 319 318 318 318 317 317 317 317 318 317 317 318 317 317 318 318 317 318 318 318 318 317 317 317 317 317 317 317 317 316 315 315 317 319 319 319 319 319 318 319 321 319 317 319 320 319 320 321 320 321 321 322 323 322 323 322 320 321 322 320 319 317 322 329 332 333 336 337 336 338 338 337 339 340 340 340 342 343 344 345 346
318 318 317 316 316 318 319 319 318 318 318 317 317 316 316 317 317 317 317 317 318 318 317 317 317 318 318 318 318 318 317 317 317 317 317 317 315 314 315 316 318 319 318 319 320 319 319 320 319 317 317 318 317 318 319 319 320 320 321 323 322 323 324 323 323 324 322 320 318 323 330 332 332 336 337 335 337 337 337 338 339 339 339 339 341 343 343 344
319 319 319 316 316 318 318 318 318 318 317 317 317 316 316 316 316 316 316 317 318 317 317 317 317 318 318 317 318 318 318 318 318 317 317 316 314 314 315 315 317 317 316 317 319 319 320 321 321 319 317 317 317 318 317 318 319 320 321 322 322 322 322 322 322 320 320 322 321 324 329 332 334 335 334 334 335 335 336 337 337 338 339 338 339 340 341 341
320 320 320 318 317 317 317 317 319 318 317 318 317 316 316 315 315 316 316 316 317 318 318 317 317 318 317 317 318 318 318 318 318 318 317 316 315 315 315 315 315 314 315 317 318 319 320 320 322 322 319 319 319 319 320 321 319 319 319 320 321 321 322 323 321 319 321 322 323 327 331 332 333 334 334 334 334 334 335 336 336 337 337 337 337 337 337 338
319 318 318 320 319 318 318 317 317 318 318 318 318 316 316 316 315 315 316 316 316 317 317 317 317 318 318 318 319 318 318 319 318 319 318 317 316 314 315 316 315 313 315 317 317 318 320 318 319 321 319 318 319 319 319 321 319 318 318 318 319 321 323 322 319 321 326 322 323 332 336 331 332 335 334 334 334 334 335 335 335 335 335 336 336 335 335 335
318 317 316 319 319 318 318 317 317 318 317 316 317 317 316 316 317 316 316 316 316 317 318 318 318 318 318 318 319 319 320 320 319 320 319 318 317 315 315 316 315 314 316 316 315 318 319 317 317 318 317 317 317 316 317 319 319 318 318 318 319 319 321 322 321 324 327 323 324 334 336 333 334 334 333 334 334 334 335 334 334 334 334 335 334 334 334 334
318 317 315 316 318 317 316 316 318 317 316 317 317 317 317 316 316 316 316 317 316 316 318 318 317 316 317 318 320 321 321 320 320 321 320 319 318 318 317 316 315 316 316 316 316 316 317 318 318 317 316 317 316 315 316 316 317 317 317 317 318 319 320 321 322 324 327 327 330 334 334 334 333 332 332 334 333 333 334 333 334 333 333 333 333 333 333 333
320 320 320 318 317 317 317 317 318 317 316 318 317 316 317 316 315 316 316 317 317 316 317 317 316 316 317 318 319 320 319 320 320 320 320 319 318 318 319 318 317 317 316 316 317 315 315 318 318 316 315 315 315 315 315 315 315 315 316 316 316 317 318 319 321 323 325 328 330 332 332 333 333 332 332 332 332 333 333 333 333 333 333 333 332 332 332 332
318 318 321 321 317 316 318 318 319 319 317 318 318 316 316 316 316 316 316 316 317 317 316 316 316 317 317 318 318 317 317 318 318 317 317 317 317 317 319 317 316 317 317 316 316 315 315 317 317 315 314 314 315 314 313 314 315 313 314 315 315 316 317 317 320 322 324 326 329 329 330 331 332 331 331 331 332 332 332 332 333 332 332 333 332 331 331 331
319 317 318 321 318 316 318 318 318 320 319 318 318 318 317 316 316 317 316 315 315 316 316 316 317 317 317 317 316 316 316 316 315 315 315 315 315 315 316 316 316 318 319 317 316 316 317 317 316 314 313 314 314 313 313 313 312 311 313 315 316 316 317 318 320 322 324 326 327 328 329 330 331 330 329 329 330 331 331 331 331 331 331 331 331 331 330 330
Wind_Speed
10 10 9 9 9 9 9 10 10 10 11 10 9 8 8 7 8 7 7 7 6 7 9 8 8 8 8 7 7 6 8 9 9 11 12 8 10 13 14 17 17 16 17 15 15 15 15 14 13 12 12 11 11 9 7 8 8 5 2 2 3 3 5 3 2 2 6 8 9 8 7 9 8 6 9 10 9 13 12 10 12 10 14 20 25 30 30 29
12 11 10 10 10 9 9 9 9 10 10 11 11 10 9 9 9 8 8 8 7 7 8 8 8 7 7 7 6 6 7 8 9 14 12 7 9 13 15 17 17 18 18 18 18 18 16 15 14 14 13 11 10 7 6 6 7 6 1 1 1 4 8 10 6 2 5 8 11 8 8 8 10 8 8 7 10 13 11 11 12 15 21 26 30 31 29 29
12 12 11 11 11 10 9 9 9 9 10 10 11 11 11 10 10 10 9 9 8 7 7 8 7 7 6 6 6 6 6 7 12 14 9 8 11 13 16 18 18 19 19 18 18 18 15 14 14 15 13 10 9 7 6 6 6 4 2 2 1 3 6 12 11 6 6 10 12 9 8 8 10 8 4 6 10 11 10 12 14 19 26 29 31 30 30 29
12 12 12 13 12 12 11 10 9 9 9 10 11 11 12 11 12 11 11 10 9 8 7 7 7 6 6 5 5 5 5 8 9 7 5 8 11 12 16 18 18 19 19 16 16 16 14 12 13 15 13 10 9 9 8 6 5 2 2 2 2 1 3 9 12 12 9 11 12 11 9 8 10 10 7 9 8 6 8 11 15 21 27 30 31 30 29 28
12 12 12 13 13 13 13 12 10 9 10 10 10 11 12 12 12 12 11 11 10 8 7 7 6 5 5 4 5 4 4 4 2 5 5 8 8 12 15 17 18 19 20 16 15 16 14 13 14 15 13 11 9 10 9 9 8 4 7 7 1 2 2 4 7 14 11 13 14 12 10 8 11 12 9 10 6 5 9 11 15 21 26 29 30 30 28 27
12 12 12 12 12 13 14 14 12 11 10 10 11 11 12 12 13 13 12 12 10 9 7 6 5 5 5 4 5 4 5 3 4 2 8 7 7 11 14 18 19 20 20 16 16 16 15 14 15 15 14 11 9 9 8 10 9 4 5 6 0 2 3 2 3 10 9 11 11 9 11 10 11 12 10 10 6 7 12 12 17 22 24 27 28 28 28 27
12 12 12 12 12 12 13 14 13 13 11 11 11 12 12 13 13 13 12 11 10 8 7 5 4 4 4 4 4 4 10 8 2 4 7 5 7 10 16 19 21 22 20 17 18 17 15 16 16 15 12 9 8 9 6 8 10 4 4 3 1 1 2 1 2 5 8 8 8 9 13 11 7 10 12 10 7 9 15 15 19 23 25 26 26 26 27 27
13 13 12 12 12 12 13 13 13 13 12 12 12 12 13 13 13 12 11 10 8 8 6 4 3 3 4 4 4 8 12 7 3 5 6 5 8 13 19 21 23 23 19 19 19 17 16 16 16 14 11 9 7 8 6 6 9 8 6 2 0 2 1 1 2 3 8 10 10 10 12 10 8 10 11 10 9 13 17 18 21 24 25 25 25 25 26 25
14 14 14 13 13 13 14 14 14 13 12 12 12 12 13 12 11 11 11 9 7 8 5 4 3 2 4 4 5 10 5 2 3 6 3 6 10 16 22 23 25 21 18 19 18 17 16 15 16 14 10 8 6 8 9 7 6 7 7 3 3 4 3 2 1 4 8 11 13 13 11 11 12 12 10 11 13 15 19 20 22 25 25 24 24 24 25 24
14 14 14 14 14 14 14 14 14 14 13 12 12 12 12 11 10 11 11 8 6 6 4 3 2 2 3 4 7 7 5 5 4 3 1 8 13 19 22 22 23 19 18 19 18 18 16 13 15 13 10 10 7 7 10 8 3 6 8 5 6 5 2 2 2 7 8 9 13 13 13 14 14 10 7 12 16 17 21 21 22 24 24 23 24 24 24 23
14 14 14 14 14 14 15 15 14 13 13 12 12 12 11 10 10 11 9 7 6 5 4 2 2 2 2 5 11 5 8 5 2 3 5 10 14 20 20 19 20 18 17 18 18 17 15 13 11 10 7 7 7 8 12 11 4 5 8 7 8 6 2 2 4 8 8 7 9 10 14 14 12 8 7 14 17 18 21 22 22 23 23 23 23 23 23 22
15 14 14 14 13 14 14 15 14 13 12 12 12 11 10 10 11 11 7 6 5 5 3 1 2 2 2 8 13 2 6 5 6 7 9 11 13 17 16 16 18 16 16 16 17 16 15 12 10 12 6 5 7 7 8 11 7 6 8 9 8 7 5 5 6 7 7 7 6 7 10 10 8 7 9 14 17 18 20 21 21 21 21 22 23 23 22 22
15 15 15 14 14 14 14 15 14 13 12 11 11 11 10 10 10 8 6 5 5 5 2 1 1 2 3 9 7 3 4 6 8 9 11 12 13 14 12 14 16 14 14 14 14 14 14 10 10 15 10 8 7 2 2 8 10 8 10 8 6 7 6 5 7 6 4 5 7 6 5 6 6 6 11 15 16 18 19 20 21 20 21 22 22 22 22 22
16 16 16 15 15 14 14 14 14 13 12 11 10 10 9 10 9 6 5 4 4 3 1 1 2 2 6 6 2 5 7 8 9 11 11 12 12 12 12 13 14 13 12 12 12 12 11 9 10 15 13 13 9 6 4 9 9 9 10 7 7 6 4 5 8 7 4 3 6 7 3 4 6 4 10 16 18 20 18 19 21 19 20 21 22 22 22 22
17 16 16 16 16 15 14 14 14 12 11 10 9 8 8 9 7 4 4 3 1 1 1 1 2 2 10 8 3 7 12 11 10 12 11 12 12 12 13 13 12 10 11 10 10 10 9 9 11 13 12 14 11 7 7 9 7 9 9 7 8 6 4 7 8 9 7 3 2 3 2 6 7 7 12 16 20 23 17 15 19 19 20 21 22 21 22 22
18 17 15 15 16 16 15 13 12 11 11 10 7 7 7 8 7 3 2 1 1 1 3 2 0 4 9 4 6 10 12 11 12 12 11 11 11 12 14 13 11 9 10 8 6 8 10 10 12 13 12 11 9 7 7 7 7 9 8 7 8 7 5 6 8 11 10 5 1 1 0 5 4 7 12 14 15 18 18 17 17 18 20 21 22 21 22 23
19 17 15 13 14 16 15 13 12 11 10 8 6 6 6 6 5 3 1 2 2 2 1 0 2 8 9 2 5 12 13 12 14 13 12 11 9 12 13 12 12 11 11 8 5 8 10 11 10 11 11 9 8 8 8 9 9 8 8 8 8 9 7 4 7 13 13 7 5 4 2 3 3 4 8 11 11 12 16 19 17 17 19 19 20 21 21 23
18 16 15 14 14 15 15 13 12 10 9 7 4 5 6 5 5 3 3 3 3 2 3 4 5 7 8 8 10 14 14 13 14 13 12 11 9 12 13 12 13 13 12 10 9 10 11 12 10 8 9 9 8 10 10 9 10 9 9 8 8 10 11 7 6 10 15 9 6 5 4 4 5 5 8 10 14 16 16 20 20 17 17 18 19 21 22 22
16 16 15 14 14 14 14 13 11 10 8 4 3 4 5 6 6 6 6 5 6 6 2 7 12 3 1 10 11 11 13 13 14 13 13 11 10 13 13 11 13 15 13 10 11 13 11 10 10 8 9 9 11 13 12 12 12 11 12 10 9 11 10 9 6 7 11 10 8 8 6 5 5 9 11 13 17 19 17 21 21 19 18 17 17 19 21 22
14 14 15 15 14 14 14 12 9 8 6 3 2 4 6 7 7 6 8 12 14 12 6 5 14 5 3 11 11 10 12 12 13 14 13 13 12 14 14 12 14 14 12 9 10 14 13 9 9 10 10 12 15 15 16 17 12 10 10 12 11 13 8 8 9 7 7 6 7 12 12 9 9 9 11 14 15 11 10 14 19 23 22 18 17 19 21 21
13 14 15 16 16 15 14 12 8 5 4 4 4 6 6 5 3 1 3 12 15 14 11 7 11 9 3 7 8 10 12 12 13 14 14 14 14 14 14 14 13 10 12 12 10 12 12 10 10 13 14 14 15 14 15 16 11 11 12 10 11 14 6 9 10 8 7 5 5 10 15 14 13 9 9 13 11 8 8 11 15 19 22 22 22 21 21 20
14 15 16 17 18 18 14 11 7 4 3 5 6 8 5 6 5 5 6 9 10 11 12 10 11 10 5 5 6 9 13 13 14 15 16 16 17 14 14 15 12 9 12 13 10 10 10 10 12 14 14 13 12 14 14 11 10 11 10 7 11 10 4 8 8 8 7 5 5 6 10 13 15 14 14 15 12 12 13 13 12 12 16 20 19 19 20 19
14 15 16 17 19 19 14 9 5 3 3 7 6 6 4 4 4 5 7 10 7 9 11 11 12 11 10 10 9 11 13 13 14 17 18 17 18 15 13 13 12 10 13 12 10 9 8 10 14 14 13 12 11 14 14 7 9 11 7 6 10 11 8 5 7 10 8 6 6 6 6 9 14 14 14 15 15 15 15 13 12 11 10 11 13 15 18 20
13 15 16 16 16 16 12 7 3 2 3 7 6 4 3 3 4 7 7 10 8 8 9 10 12 13 12 10 11 16 15 12 14 17 18 18 17 13 11 13 13 11 12 14 14 11 9 11 15 15 13 14 13 13 12 8 9 11 10 10 9 13 14 2 3 9 9 7 5 5 6 6 12 13 12 14 15 15 16 16 14 11 8 8 10 13 16 19
14 15 15 14 13 12 9 5 4 1 3 6 6 3 2 3 3 6 7 10 7 7 8 9 11 11 9 9 12 17 14 11 14 17 19 19 17 11 9 12 12 10 12 15 14 11 10 10 14 16 13 13 12 11 12 10 9 10 13 15 11 14 14 6 4 5 6 7 8 8 7 4 10 12 12 14 13 12 16 17 16 14 13 14 12 13 16 18
14 16 15 14 12 9 6 3 3 0 5 6 3 2 2 3 4 5 6 7 6 8 8 11 13 9 9 12 14 13 11 9 10 14 19 19 17 12 9 10 11 11 11 13 10 8 9 9 9 11 12 13 12 9 13 13 10 8 11 15 13 11 11 10 9 7 6 6 9 11 7 3 8 8 9 11 10 9 12 15 17 17 16 17 15 15 16 16
14 15 15 14 12 8 5 3 1 2 4 4 2 1 2 3 4 4 6 7 5 6 7 11 10 9 10 13 17 11 6 11 11 11 17 17 14 12 10 8 9 10 9 11 8 7 10 11 9 9 12 13 11 9 11 12 11 8 9 16 14 7 8 9 8 7 9 4 7 10 8 5 6 6 7 6 7 7 8 10 16 19 17 16 16 17 17 18
13 14 14 13 11 8 5 1 1 2 1 1 1 3 3 4 5 4 7 6 3 4 6 9 6 7 9 13 18 11 4 14 12 11 15 14 12 12 10 8 9 10 9 9 8 8 11 10 11 13 12 10 10 10 10 13 12 5 2 10 13 9 9 7 6 7 9 8 6 9 9 7 5 6 6 5 6 6 6 7 12 17 19 18 18 17 17 19
13 15 14 12 10 8 6 1 1 4 2 2 3 3 3 5 5 5 6 3 2 3 5 8 7 9 10 12 17 12 6 9 7 12 16 13 13 12 9 7 10 11 9 9 10 9 10 9 11 13 12 9 11 11 10 12 13 3 6 3 8 9 11 9 9 9 8 11 9 8 10 8 2 5 7 5 5 6 6 6 7 11 17 21 22 20 19 22
13 15 15 13 9 7 7 2 2 4 3 3 4 3 5 6 5 6 5 1 2 5 5 6 9 13 13 13 13 12 11 6 4 13 16 12 15 15 10 5 10 11 10 11 15 7 10 13 12 12 12 10 11 12 10 10 14 9 5 4 8 7 9 9 8 9 8 11 11 9 12 11 2 2 6 4 3 3 3 5 5 5 9 15 20 21 23 25
13 15 16 14 9 5 7 4 2 4 4 3 3 4 6 6 5 6 3 0 1 5 6 7 11 14 16 14 11 11 12 8 9 13 11 9 12 13 10 6 8 9 8 11 13 7 8 11 10 10 9 7 8 12 11 9 12 13 4 5 9 7 6 7 7 8 9 10 11 12 15 14 8 4 5 5 4 2 1 3 3 2 3 6 13 18 22 25
12 13 15 16 13 8 7 6 6 8 6 3 4 7 7 5 5 4 1 2 2 4 7 8 10 13 15 14 10 11 10 8 11 12 9 9 9 9 10 7 6 8 7 9 11 8 7 9 10 10 8 9 10 10 10 8 9 10 7 7 9 8 7 8 8 8 8 9 10 13 17 13 5 5 7 7 5 4 3 4 4 3 3 2 7 13 18 21
11 13 14 15 14 10 8 8 9 8 5 3 6 8 7 4 2 2 1 2 2 2 3 6 11 14 17 14 10 12 10 8 11 13 11 11 9 9 8 7 8 9 6 8 11 9 7 10 12 10 8 12 12 9 9 8 9 10 9 9 8 7 8 9 9 8 9 9 9 13 16 9 6 7 7 7 7 5 5 7 6 5 4 2 5 13 18 19
10 12 13 14 15 12 8 7 6 6 5 6 8 7 6 3 1 1 1 2 2 3 4 6 12 16 16 11 9 11 9 8 10 10 9 9 8 9 8 7 8 7 6 8 11 11 8 9 13 9 8 13 13 9 6 4 9 12 9 10 9 7 7 7 8 8 8 8 10 14 14 8 7 7 7 8 9 8 8 8 8 8 6 5 7 10 18 21
9 10 13 13 14 13 11 8 5 5 6 7 8 5 3 1 1 1 1 2 0 4 7 8 10 13 11 8 9 10 7 6 10 9 8 9 7 6 6 6 5 4 7 6 7 12 10 7 11 6 5 14 16 13 9 6 7 11 10 10 9 8 8 6 7 9 9 8 10 10 5 3 6 10 10 9 9 9 9 9 11 11 9 10 12 8 12 17
7 7 9 9 8 9 11 10 7 3 6 8 6 3 1 3 4 4 3 2 4 2 7 10 10 10 10 8 9 10 6 5 11 11 8 5 2 3 2 1 0 6 7 5 4 9 10 6 12 8 6 12 12 10 11 10 6 6 10 11 9 10 9 7 9 10 10 10 9 9 5 7 7 8 9 10 10 10 9 11 12 13 12 12 12 8 7 10
5 5 5 5 6 7 8 9 7 3 7 8 3 2 3 4 4 5 3 3 5 3 5 7 6 7 8 8 8 11 9 7 10 9 6 5 3 4 2 1 2 7 8 7 7 5 5 6 11 11 9 9 7 7 11 14 10 5 7 9 10 11 8 7 7 9 11 10 8 12 12 9 8 6 6 9 9 10 10 11 12 13 13 13 11 9 8 6
5 5 3 2 6 8 5 4 5 5 8 7 1 1 3 5 5 6 4 4 3 2 5 4 4 5 7 8 8 12 12 8 9 9 7 7 3 3 1 1 2 6 10 10 7 4 3 4 9 10 9 9 10 9 8 12 15 10 5 6 8 9 7 6 6 7 11 10 8 14 16 11 8 7 8 8 8 10 10 10 11 12 13 13 12 11 9 7
6 8 5 2 6 6 4 3 6 8 8 5 2 2 2 5 6 7 6 4 2 2 4 3 4 5 6 7 8 11 12 9 10 9 5 4 2 3 2 2 3 6 10 10 7 4 5 4 5 8 9 9 10 10 8 10 14 12 7 7 8 6 7 8 6 6 8 9 9 13 14 8 5 7 8 7 6 7 8 9 10 12 14 13 13 13 11 9
7 8 2 4 5 5 5 7 11 10 5 0 2 3 3 4 6 8 7 4 2 3 5 1 4 5 3 5 7 8 8 8 7 5 3 3 3 4 4 4 4 6 8 8 7 5 6 5 2 7 9 8 8 7 5 5 9 10 8 8 8 6 7 9 9 7 7 9 9 10 9 6 6 6 7 7 5 4 6 7 8 12 14 14 15 14 13 12
7 5 5 6 5 4 8 11 8 6 1 3 3 5 4 4 5 6 6 4 1 3 6 6 3 3 3 4 6 5 4 5 5 3 4 3 2 3 4 5 5 6 6 6 6 4 4 6 4 7 8 7 5 4 3 4 2 4 7 9 10 9 8 9 10 10 9 9 8 8 7 7 6 4 6 6 4 4 5 5 8 11 12 13 15 15 14 14
7 4 6 7 5 6 11 8 1 3 2 4 3 5 3 4 4 3 4 3 2 1 3 5 5 3 2 2 3 4 3 3 3 2 3 5 6 7 5 5 6 6 5 3 2 2 4 6 5 4 4 3 7 6 4 6 7 5 4 6 7 10 11 10 9 10 10 10 10 5 6 7 4 4 7 7 6 6 6 6 8 10 12 13 15 16 16 16
5 4 6 6 3 7 11 4 2 1 2 4 2 4 4 4 4 4 3 3 3 2 1 2 3 3 2 1 2 5 3 2 2 2 5 7 7 8 7 6 7 6 5 2 0 4 4 6 5 1 3 5 7 3 2 4 5 7 6 4 5 6 8 7 5 4 6 11 10 3 6 6 4 5 7 8 8 8 8 9 9 10 11 13 14 16 17 17
3 3 5 5 3 8 8 1 2 1 3 3 3 4 4 5 7 6 5 6 5 3 3 4 3 2 3 3 1 4 3 1 2 2 3 5 6 7 7 8 8 5 5 4 3 6 4 5 5 4 5 5 4 5 5 5 6 8 6 3 5 7 7 7 6 4 5 10 9 4 6 7 7 8 9 9 9 9 9 10 11 10 11 12 14 15 17 18
3 2 2 5 3 5 4 4 2 2 4 3 3 4 4 4 5 6 6 7 7 5 4 4 4 4 4 2 2 3 1 1 2 3 3 6 6 5 6 8 9 8 8 8 8 7 4 2 2 4 6 5 4 4 5 7 8 6 3 2 4 7 8 7 6 6 6 7 7 2 6 9 9 10 11 10 9 9 10 11 11 12 12 13 14 15 16 18
5 2 1 3 2 3 5 5 4 2 3 2 2 1 1 4 5 3 5 5 6 7 5 4 3 2 3 3 3 3 1 1 3 4 5 6 6 5 5 6 8 9 8 8 9 7 3 1 1 2 1 1 1 3 3 3 8 9 6 4 3 4 5 7 8 6 5 6 3 4 11 13 12 13 12 11 10 9 9 10 11 11 12 13 14 16 17 18
4 2 3 3 2 2 4 3 3 2 1 1 1 1 1 2 4 3 3 3 3 3 4 4 2 0 2 2 4 4 4 5 5 5 5 5 5 6 4 4 6 7 6 6 6 5 3 2 1 1 2 3 4 5 6 4 2 6 5 4 2 1 4 8 8 4 5 5 3 9 14 14 14 14 13 11 10 9 8 9 10 10 11 12 14 15 18 19
3 3 4 3 3 2 3 5 5 3 4 3 1 0 1 2 2 3 3 3 2 2 2 2 3 3 3 1 1 4 4 5 6 5 4 4 4 6 5 3 5 3 3 4 5 5 4 2 1 1 1 1 3 3 4 4 2 2 1 1 1 1 3 6 4 3 6 5 5 10 12 13 13 14 13 11 10 10 10 9 9 10 11 11 13 15 17 19
3 4 4 1 3 4 4 4 4 4 5 3 2 2 2 3 3 4 4 3 3 3 3 2 3 3 3 1 0 3 3 1 5 5 3 3 2 2 3 3 3 2 2 2 4 3 4 1 2 3 3 1 1 1 1 2 1 3 3 1 2 2 1 2 1 2 1 4 10 13 13 11 11 12 12 12 12 12 12 11 9 9 10 11 12 14 16 18
5 4 3 2 3 4 2 1 0 3 4 1 0 3 3 4 6 5 6 6 4 4 3 4 5 4 4 4 4 5 5 5 4 6 2 1 1 1 1 1 2 3 3 2 2 1 3 1 1 4 5 3 2 2 3 3 4 5 4 3 5 4 3 3 2 2 3 7 10 13 14 10 9 12 12 11 12 12 11 11 10 8 8 10 11 13 15 17
6 4 2 3 3 2 2 1 0 1 3 2 1 3 3 5 6 5 6 9 7 6 5 6 7 6 6 8 7 8 7 7 6 6 3 3 3 2 2 3 3 2 1 0 0 1 3 1 2 4 6 5 4 5 5 4 5 8 8 7 7 6 6 5 3 2 3 7 10 11 11 9 8 11 11 10 11 12 11 9 8 8 8 8 11 13 14 15
5 3 2 5 1 1 2 1 1 2 2 5 4 3 4 5 4 2 3 5 6 7 6 5 4 4 5 7 7 7 7 6 6 5 3 4 4 3 3 3 2 3 2 1 1 2 3 2 3 5 6 4 6 5 4 4 7 8 8 9 9 7 6 4 4 2 1 4 8 8 8 9 10 11 11 10 11 12 11 7 5 7 7 7 10 12 13 14
Wind_Direction
7 5 359 354 349 342 335 327 322 320 316 317 317 319 321 321 323 326 330 331 325 312 306 303 296 295 297 299 293 292 292 289 292 280 273 265 230 224 217 214 215 206 197 182 177 189 190 194 200 198 202 210 221 232 234 235 246 260 311 324 283 14 73 112 11 61 129 136 136 147 166 149 134 148 157 155 145 137 130 134 138 135 136 134 136 140 141 144
7 5 3 359 355 351 344 334 330 325 320 318 316 318 318 318 319 321 326 328 329 317 307 303 295 294 299 296 295 294 290 294 287 276 273 258 236 223 212 209 205 202 192 178 186 191 189 196 193 196 202 210 215 212 227 222 226 231 233 295 264 28 69 113 127 110 146 149 134 151 187 153 134 155 171 151 137 143 136 131 131 125 128 132 138 141 144 146
3 0 359 357 354 351 348 342 337 331 326 321 317 317 315 317 317 319 322 324 328 320 310 303 296 292 296 297 295 293 293 297 280 271 267 246 237 221 210 206 200 199 191 182 193 192 194 200 190 200 204 212 216 198 221 214 216 220 175 274 63 38 56 99 117 124 143 147 138 159 170 134 138 157 163 138 142 152 139 135 137 130 133 138 141 144 146 149
357 356 353 351 348 344 344 343 340 336 331 324 319 315 313 315 314 318 321 323 326 318 313 304 296 289 292 297 287 294 303 290 264 229 228 243 235 221 210 200 197 195 186 187 199 197 205 206 196 209 211 218 218 208 229 204 198 237 180 259 26 357 11 75 105 120 146 158 150 161 144 127 153 155 150 150 148 145 136 143 144 138 140 142 145 148 149 152
352 352 349 346 342 339 337 335 338 337 333 326 318 313 313 314 313 318 319 322 324 317 314 303 298 287 286 292 278 286 291 280 156 163 246 261 233 219 206 192 193 186 179 191 203 202 211 209 204 216 224 228 211 209 227 206 207 221 198 211 289 324 30 49 97 112 145 170 168 167 141 147 163 145 145 155 151 156 155 154 150 145 145 146 148 150 151 154
349 348 345 342 338 334 330 329 333 334 332 324 316 314 313 314 314 317 319 322 320 315 310 301 300 284 278 273 268 261 255 281 76 242 271 262 225 209 194 185 185 178 179 198 202 203 209 206 207 213 226 234 216 212 213 205 218 227 205 205 199 349 57 26 65 104 143 164 162 150 133 162 160 136 147 151 146 174 166 154 150 149 148 149 150 152 154 156
349 346 343 340 333 329 326 324 328 329 330 322 315 314 313 315 316 317 320 319 316 313 305 299 295 275 272 255 260 246 246 268 332 277 278 247 213 190 180 179 178 174 183 204 202 202 206 202 208 214 225 234 222 223 214 207 218 221 244 233 94 4 49 11 353 119 137 132 135 136 143 166 153 134 151 145 127 152 155 150 149 148 149 150 152 154 155 157
350 347 345 339 332 327 322 322 324 326 326 321 315 312 313 316 317 320 321 320 316 308 301 296 285 266 266 236 251 252 238 249 281 282 288 221 190 171 172 176 175 173 188 207 201 201 205 203 211 216 225 237 225 216 218 225 224 223 239 247 81 294 332 332 312 137 131 129 146 154 151 151 143 138 138 137 132 141 149 149 149 147 149 151 154 156 155 158
351 348 346 341 335 328 322 322 322 324 323 320 316 312 315 317 320 322 318 319 313 303 303 290 273 255 254 219 254 258 213 104 271 274 281 183 169 165 170 176 174 176 195 205 201 203 206 209 214 219 242 263 242 214 216 225 229 234 245 271 288 291 332 337 266 161 138 141 159 160 149 151 162 151 137 151 145 143 149 146 147 149 152 153 155 158 157 160
350 348 344 341 337 330 325 323 322 324 320 317 316 314 317 318 321 320 313 313 305 301 302 277 257 238 237 218 256 255 116 86 262 260 162 161 159 163 170 176 176 182 199 201 204 207 210 215 216 227 265 279 259 227 220 220 235 244 251 275 275 277 322 316 188 156 139 149 174 162 149 165 168 149 147 160 145 143 147 143 148 152 154 156 156 158 160 162
345 343 340 338 335 330 326 324 324 323 317 315 315 316 320 319 320 316 307 301 296 303 300 266 240 230 205 235 258 264 95 106 159 125 141 150 158 165 168 177 179 188 199 200 207 209 213 221 222 229 254 272 250 231 225 222 246 259 257 264 249 242 218 198 156 153 148 158 187 160 146 158 147 130 140 148 147 148 147 145 151 154 156 158 157 158 161 164
339 337 334 331 330 328 324 323 324 324 317 311 311 317 321 321 318 311 302 294 293 301 295 251 229 187 182 251 253 265 88 138 141 130 145 145 160 166 168 182 184 192 199 203 208 208 216 224 234 229 235 293 250 228 231 224 239 253 250 256 233 211 194 172 152 165 168 158 183 163 150 151 135 151 156 151 154 148 146 149 152 157 159 159 159 159 163 166
337 334 329 326 324 321 320 320 322 324 318 309 311 317 322 325 319 306 296 295 293 293 278 226 201 149 243 254 229 160 116 148 148 141 148 150 160 168 177 186 185 195 203 208 208 206 217 225 240 237 244 276 256 290 288 221 230 243 242 252 241 206 182 154 154 168 156 140 162 152 147 161 148 168 172 165 154 142 151 154 152 159 161 161 162 161 165 167
337 333 329 324 320 316 315 316 319 323 318 310 310 315 324 331 325 307 293 296 293 286 233 190 166 154 253 252 162 182 166 147 157 151 153 158 160 168 177 180 184 197 205 211 211 206 218 226 242 248 247 248 267 332 280 223 223 236 238 234 241 230 170 167 175 149 101 120 167 157 153 148 137 186 192 174 156 149 159 159 156 162 161 164 166 164 168 169
335 333 330 322 317 314 311 312 315 318 317 312 311 315 326 336 337 321 287 286 298 283 106 99 138 192 250 238 175 199 171 153 166 158 159 163 160 167 167 173 182 189 194 204 212 208 216 228 236 244 239 238 264 293 235 223 218 223 237 224 229 234 164 186 183 134 120 150 212 220 202 111 127 197 196 179 166 155 159 163 161 164 164 166 168 168 169 169
333 334 332 322 315 311 310 310 310 313 314 311 310 313 324 339 349 341 287 249 306 333 95 58 99 233 263 244 152 180 173 169 173 162 165 164 164 168 164 169 174 173 181 189 203 201 209 227 232 235 237 230 237 248 226 221 216 209 225 230 225 222 183 187 170 132 129 147 138 286 259 100 131 196 187 184 176 157 156 163 165 166 167 169 169 171 171 169
335 337 338 329 319 313 312 311 308 308 310 309 309 312 323 333 339 335 272 231 289 320 144 25 271 244 264 284 163 182 180 176 170 165 170 169 169 168 163 171 174 172 176 178 188 191 201 218 225 230 236 230 217 227 228 217 214 200 207 229 228 222 211 185 160 139 135 157 167 141 122 106 123 201 206 197 182 174 165 157 166 172 168 172 172 172 172 170
342 342 342 335 327 320 316 313 308 304 305 306 300 304 314 314 309 291 245 254 282 269 246 224 214 247 243 207 196 189 180 170 167 170 172 172 171 167 170 176 173 174 178 183 192 190 193 205 216 224 222 225 218 217 224 219 217 205 200 220 229 225 215 196 184 157 151 163 167 155 147 119 124 172 222 224 194 192 177 157 164 172 169 175 178 175 174 173
348 344 344 341 337 329 322 316 304 297 296 286 275 295 297 282 272 255 227 223 217 221 271 191 194 266 31 171 178 172 166 162 167 172 172 173 169 168 174 176 174 179 185 184 186 190 191 198 211 223 215 213 214 214 223 226 224 223 208 205 225 232 216 188 171 167 172 170 166 177 162 130 163 176 193 223 216 200 177 158 157 164 173 178 180 181 176 174
355 350 352 351 350 341 333 326 307 294 280 247 221 258 268 258 243 217 199 213 226 244 296 198 201 241 79 149 149 142 152 161 174 176 175 173 167 171 173 174 179 188 199 188 177 187 193 204 210 216 219 211 214 219 229 235 246 270 237 199 218 239 218 164 151 165 197 199 182 169 149 162 196 181 177 200 215 206 172 162 161 164 171 175 184 186 177 177
3 2 2 360 357 349 341 336 320 297 257 208 187 233 270 312 301 355 202 226 231 241 257 234 222 243 217 153 148 158 168 174 184 180 177 175 172 175 173 178 185 191 208 195 173 182 195 216 215 214 224 217 215 221 232 244 260 284 261 201 212 239 208 140 148 165 192 217 220 165 149 173 183 163 180 189 188 191 185 188 180 166 164 173 187 184 175 178
7 5 3 1 356 350 342 336 328 302 234 182 189 234 281 356 346 344 322 269 235 221 236 232 230 246 232 194 185 186 184 182 185 180 176 178 184 186 174 186 199 189 200 198 178 183 199 222 219 212 225 223 217 221 227 244 248 253 254 206 211 228 169 125 149 169 183 194 220 196 166 174 172 163 177 183 178 186 190 189 182 173 168 175 187 176 170 179
6 2 358 355 352 349 341 331 328 291 202 176 200 244 289 350 335 320 308 286 251 204 220 223 218 221 207 207 203 193 196 192 183 177 176 184 195 198 184 190 208 195 193 199 193 192 199 215 219 212 217 223 217 216 218 223 233 235 235 212 210 213 203 172 177 178 188 222 214 209 210 174 168 171 170 177 182 181 181 177 171 180 180 174 186 177 171 181
2 357 352 348 346 350 348 346 359 308 185 189 230 265 296 305 325 323 296 279 263 193 201 212 208 210 199 194 187 191 205 196 179 176 176 191 199 198 198 199 211 207 194 202 203 210 216 201 210 212 208 219 216 207 211 209 220 223 224 228 214 218 226 188 138 176 178 233 223 181 224 187 166 174 166 174 188 177 169 169 162 168 178 170 186 189 179 180
360 355 352 348 346 359 11 29 45 5 195 203 235 248 281 288 309 319 294 271 249 173 177 193 199 205 184 168 179 196 212 195 184 180 176 196 201 189 206 207 215 215 190 200 208 216 225 199 203 209 194 211 216 197 207 215 222 217 221 237 235 234 231 149 125 217 191 214 207 192 232 208 176 185 167 166 182 176 166 167 159 158 176 183 190 199 189 181
359 358 359 358 355 3 10 22 45 267 208 197 199 202 254 286 294 304 290 265 217 162 162 176 186 191 182 181 179 197 221 193 177 174 176 200 207 196 212 200 212 229 190 193 216 224 221 197 199 201 180 200 217 203 207 213 229 224 210 227 241 266 254 187 176 228 239 213 182 195 235 225 188 176 139 149 166 173 173 167 157 155 173 188 194 196 193 190
360 1 3 3 0 1 349 335 354 227 207 174 160 244 269 275 284 296 272 250 198 158 152 160 176 187 189 185 177 193 208 154 153 169 180 201 207 211 236 199 197 235 206 188 209 225 212 182 172 190 185 198 212 210 203 203 229 237 203 206 213 259 272 213 193 223 243 232 148 182 230 241 195 128 103 142 152 163 180 162 155 160 170 185 195 193 193 197
359 359 2 2 1 5 5 343 263 271 264 98 255 263 277 271 275 277 258 240 151 137 145 142 158 179 177 179 187 206 139 142 166 175 177 199 203 205 234 214 200 222 211 197 195 201 206 183 173 194 202 204 210 214 199 199 227 244 186 210 199 208 238 222 222 236 242 244 189 184 213 228 193 140 144 171 155 166 185 167 163 168 171 181 197 196 185 189
354 354 358 356 357 5 13 58 280 311 333 297 268 266 275 272 272 258 251 248 140 159 146 134 154 176 175 180 195 209 180 174 192 159 165 198 207 215 253 243 222 215 196 217 219 185 179 187 193 202 209 207 202 211 200 198 220 183 76 259 221 212 230 227 235 238 238 245 229 195 199 208 189 157 172 166 161 177 177 170 168 168 172 179 189 191 179 183
348 351 353 351 356 357 339 310 256 308 308 261 264 273 265 255 250 234 221 214 151 157 145 150 170 180 181 180 188 198 191 186 137 149 168 194 200 220 261 261 239 222 180 218 241 209 170 184 201 211 216 215 198 205 202 194 229 227 125 211 228 219 229 227 238 241 232 233 227 225 218 202 184 178 169 144 144 165 160 158 153 158 171 174 181 184 177 180
345 347 349 346 344 329 308 288 248 291 283 264 274 260 247 235 240 245 215 127 122 149 162 172 169 177 185 184 183 188 187 165 149 167 177 184 189 209 225 216 239 227 179 209 232 218 188 188 200 215 215 224 210 205 201 185 230 241 189 197 213 201 217 216 222 230 233 227 206 219 232 212 199 195 150 127 116 105 120 133 112 115 147 169 182 178 172 176
343 342 346 341 331 318 302 295 283 275 260 242 254 241 235 221 226 255 211 173 211 172 176 174 164 175 187 188 177 175 183 165 167 181 177 180 189 195 206 205 204 204 192 206 203 182 196 205 209 208 198 222 222 199 195 192 220 227 202 211 210 187 195 205 209 210 223 234 201 205 234 228 187 140 132 125 112 94 64 67 57 45 71 143 185 172 170 178
344 340 343 344 338 323 295 287 278 262 239 232 252 245 246 243 218 273 262 155 138 137 180 181 172 183 189 187 173 170 178 168 177 192 185 188 197 181 199 230 220 218 213 204 198 179 185 200 198 190 183 216 226 195 183 192 206 212 206 211 209 192 193 196 204 206 210 231 220 210 224 214 116 113 132 121 107 95 76 70 58 47 55 96 169 165 169 176
345 345 350 359 357 344 323 315 286 238 211 228 246 247 252 259 103 285 295 62 92 160 200 188 179 190 194 185 170 172 179 175 182 193 181 192 209 180 187 223 226 252 256 214 205 191 192 191 184 187 183 193 213 217 209 209 200 206 216 221 219 209 200 196 204 207 200 210 219 212 210 192 139 133 128 115 108 97 80 72 64 57 57 62 89 143 166 172
348 2 6 7 2 349 343 345 312 230 214 233 246 249 251 273 66 349 15 38 96 187 186 183 184 191 186 173 176 182 192 187 180 190 188 192 206 183 182 195 192 282 288 251 209 194 206 184 156 160 165 176 201 224 241 265 212 195 213 226 229 218 206 214 218 209 202 204 210 208 194 105 126 133 125 116 105 93 83 74 67 60 60 70 77 106 161 171
347 359 4 9 4 345 341 343 332 246 224 248 260 275 12 51 18 352 16 336 302 237 187 185 192 192 176 170 183 185 203 208 188 192 189 167 87 47 40 83 259 307 308 301 264 208 204 161 137 145 165 180 204 216 217 239 233 191 208 217 228 229 225 234 220 205 209 213 199 182 137 96 126 135 123 117 102 90 82 71 68 62 60 76 87 98 135 164
330 314 337 11 11 351 347 345 334 276 246 261 277 0 17 55 15 349 3 308 299 271 212 192 192 201 184 181 187 182 187 194 191 192 178 154 90 45 20 9 323 315 325 320 296 244 197 146 149 176 186 178 204 221 215 230 242 224 206 212 221 225 245 272 240 206 206 214 199 181 172 161 167 158 127 125 106 88 75 63 66 64 61 70 81 91 103 134
315 280 261 19 10 347 340 337 309 264 262 272 232 44 2 47 31 4 3 316 284 235 240 212 192 218 203 195 188 180 182 183 187 189 178 178 159 49 343 258 344 332 326 313 298 275 229 153 150 182 188 167 190 217 215 223 240 256 278 272 238 213 218 251 258 228 206 208 203 186 182 184 188 170 143 132 104 89 77 60 59 60 59 61 65 75 81 86
289 261 225 79 11 336 315 303 279 259 259 268 157 121 41 54 44 24 12 330 281 265 268 214 201 241 224 203 185 177 186 189 188 192 183 183 165 60 24 329 337 334 326 312 304 294 258 215 154 180 183 166 184 205 202 204 223 243 273 268 242 224 215 213 236 245 210 207 211 192 183 180 166 148 134 120 100 93 82 66 59 57 57 56 52 55 59 67
281 262 159 65 350 326 301 274 266 259 247 328 47 69 60 46 45 38 22 349 301 306 317 300 220 234 214 191 183 177 197 196 182 189 169 132 114 85 54 13 335 332 330 301 286 281 253 245 181 160 168 177 183 192 209 208 206 216 227 222 212 223 228 214 221 234 220 214 212 195 180 143 106 115 120 113 107 99 86 80 71 60 60 59 54 50 49 53
280 265 77 37 326 305 284 268 263 272 257 89 54 61 50 352 11 43 32 10 338 315 327 330 294 199 157 177 177 169 203 183 153 159 149 124 77 73 56 14 343 327 322 274 250 256 258 252 210 162 178 197 163 110 4 346 333 227 219 215 210 211 219 219 219 224 231 234 227 206 172 121 93 106 116 111 107 99 95 96 82 68 63 63 60 58 52 50
276 289 37 7 317 274 272 269 303 325 359 75 57 62 49 319 336 23 21 10 6 352 321 335 2 46 130 165 162 169 194 158 137 155 114 80 43 49 53 9 339 313 308 267 224 359 329 272 242 178 167 148 101 72 350 334 335 308 256 241 231 213 213 220 217 219 229 241 250 232 149 123 103 103 109 110 105 97 95 94 86 76 68 65 63 60 57 55
308 359 24 8 319 274 275 266 113 321 43 79 57 55 41 354 11 23 9 359 0 33 50 34 27 17 31 73 153 162 149 71 89 107 96 93 65 49 46 8 341 313 306 283 136 10 334 252 244 194 113 101 93 82 310 317 299 268 240 259 280 246 233 242 251 259 244 234 235 194 130 137 141 120 120 127 120 109 102 93 87 82 74 70 67 61 60 60
358 17 24 29 322 277 281 294 124 134 98 120 152 111 77 30 24 24 33 26 11 38 67 55 56 61 57 46 91 130 134 148 127 104 93 106 82 50 40 16 358 358 13 18 5 350 324 231 224 220 194 175 159 181 195 197 229 238 220 232 294 290 286 283 278 289 265 244 243 205 145 145 148 142 136 133 123 112 106 95 88 83 75 70 69 65 61 59
290 234 67 51 342 295 327 10 24 104 118 140 140 130 132 91 44 21 33 38 20 25 56 47 42 81 96 94 102 108 164 228 130 117 103 106 100 68 47 29 18 28 37 9 332 320 312 271 254 239 216 204 196 190 193 194 199 210 209 212 260 271 281 282 262 245 240 252 280 292 139 137 145 149 139 130 123 111 103 97 92 87 78 71 67 65 62 59
301 260 109 71 27 28 47 25 2 59 126 142 114 103 132 118 101 37 12 32 34 29 41 44 27 91 123 149 141 114 88 99 127 148 132 116 113 84 47 44 42 34 24 349 324 316 301 306 13 354 334 344 11 22 350 247 192 178 174 182 211 254 268 262 252 253 255 253 266 110 130 142 151 154 145 136 129 117 107 99 93 88 83 76 70 67 65 62
315 348 9 14 23 78 82 47 12 16 27 33 39 1 35 114 127 104 13 13 43 27 27 34 354 275 126 136 132 105 84 97 112 123 118 108 111 109 83 60 59 33 353 328 332 328 280 222 133 50 18 14 12 23 7 338 163 149 156 168 167 233 245 243 243 272 310 275 201 136 139 147 151 151 145 135 125 114 107 102 94 88 83 79 76 72 68 65
359 39 35 353 322 354 44 29 23 53 68 58 55 299 75 102 87 74 59 50 60 307 320 58 36 35 70 66 139 118 105 112 115 107 108 112 125 143 144 100 71 34 325 327 2 341 286 239 111 272 217 63 9 12 0 354 53 111 183 168 136 190 226 237 246 308 308 267 173 148 149 149 145 143 137 131 128 119 108 99 92 91 87 81 77 71 67 64
53 72 72 25 330 17 46 35 30 70 70 51 66 59 57 102 87 51 30 40 76 10 338 114 102 64 78 33 9 113 88 96 131 118 95 103 128 183 164 131 106 56 352 350 29 344 287 327 56 296 267 180 7 354 317 322 297 226 225 207 243 248 219 239 249 10 336 153 144 148 150 144 139 134 127 126 129 125 115 102 87 84 87 85 77 68 64 62
24 43 56 69 77 60 53 67 59 102 97 47 52 63 46 73 88 68 22 15 64 69 31 89 96 72 85 83 77 88 52 13 92 111 83 46 116 277 343 61 60 38 12 334 33 340 283 1 80 275 260 215 219 249 227 243 258 240 211 198 230 226 207 230 219 144 150 152 150 153 149 137 129 129 129 134 136 127 115 105 94 77 73 80 76 66 63 60
22 47 24 353 64 56 324 28 235 203 130 106 51 75 74 75 82 83 52 34 45 65 59 75 86 74 75 78 69 67 55 37 63 90 70 15 34 44 32 18 342 335 1 245 299 254 259 231 159 237 247 211 196 225 222 220 246 245 227 211 214 216 216 215 191 184 190 168 163 163 155 141 133 138 145 154 150 133 115 110 106 89 73 72 69 63 61 58
22 81 352 316 344 165 266 179 189 273 71 70 57 67 86 91 84 54 53 58 54 55 52 56 79 91 87 81 65 49 48 52 60 71 69 44 47 63 59 44 354 335 359 7 259 249 263 252 188 218 244 195 164 197 231 225 233 242 229 204 197 207 217 191 144 81 23 169 181 188 172 149 140 149 163 169 159 137 113 103 104 95 85 69 59 57 57 57